516P/PanSTARRS (2012)

Japanese version
Home page
Updated on June 4, 2026

---------------------------------------------------------------------

* Profile

Designation 516P/2013 G10

* Orbital Elements

                    Epoch = 2012 Dec. 19.0 TT
     T = 2012 Dec. 22.79702 TT        Peri. =  69.60530
     e = 0.3399242                    Node  = 106.67334 2000.0
     q = 2.3504316 AU                 Incl. =   4.09220
       a =  3.5608511 AU   n = 0.14668083   P =   6.72 years

* Magnitudes Graph

        m1 = 14.5 + 5 log d + 10.0 log r

---------------------------------------------------------------------

The orbital elements are printed on CBET 5659.
The magnitudes graphs are made with Comet for Windows.

---------------------------------------------------------------------

Copyright(C) Seiichi Yoshida (comet@aerith.net). All rights reserved.